Starlink 5415

operational
NORAD ID: 54796 Int'l Des: 2022-175 Owner: SPXS Country: US Constellation: starlink
LEOCIRCULAR

Über Starlink 5415

Beschreibung wird geladen...

Live-Position

3D-Globus wird geladen...

Nächste Überflüge

Höhenverlauf

Altitude vs Time

uPlot chart will show altitude changes over time

Zweizeiliger Elementsatz

1 54796U 22175AQ 25304.12791278 .00000300 00000-0 36966-4 0 9996
2 54796 53.2176 250.4971 0001529 90.2865 269.8303 15.08843013160575
Epoch: 31. Okt. 2025 • Age: 38 hours

Aktueller Status

Höhe 558.5 km
Geschwindigkeit 7.58 km/s
Subsatellitenpunkt -51.25°S, 118.97°W
Startdatum 17. Dez. 2022
Alter 2.8 years
Typ internet

Technische Details

Klassifizierung Payload
Masse 305.00 kg
Trockenmasse 290.00 kg
Gesamtmasse 305.00 kg
Länge 0.20 m
Durchmesser 2.80 m
Spannweite 9.00 m
Form Box + pan
Hersteller SPXS
Bus-Typ Starlink
Phasenstatus In Orbit
Besitzer/Staat SPXS/US

Große Konstellationen

Loading constellations...